Вернуться в каталог

STARLINK-31502

АктивенСвязьVLEO
NORAD 59301·PAYLOAD·🇺🇸 United States

Запущен Mar 24, 2024 с Cape Canaveral Space Force Station

Loading…

Ближайшие Пролёты (ближайшие 24 часа)

TLE

СвежийSource: CelesTrak SupGP

Эпоха: Sep 14, 2026, 14:45 UTC

1 59301C 24056F   26257.61506944 -.00033315  00000+0 -12072-2 0  2579
2 59301  42.9993 236.5162 0001372 277.1374  11.4591 15.27581764    13

Отслеживайте STARLINK-31502 в реальном времени с AllMySat

Download on the App Store